Time[GMT],current_speed[cm/s](2m),current_direction[angular_degrees](2m),temperature[C](2m),current_u[cm/s](2m),current_v[cm/s](2m)
2009-06-09 14:00,15.54,292.4,28.23,-14.38,5.92
2009-06-09 15:00,19.94,288.5,28.34,-18.91,6.33
2009-06-09 16:00,8.51,283.2,28.34,-8.28,1.95
2009-06-09 17:00,3.81,286.4,28.42,-3.66,1.08
2009-06-09 18:00,2.35,158.4,28.45,0.86,-2.18
2009-06-09 19:00,4.11,231.2,28.51,-3.20,-2.57
2009-06-09 20:00,3.52,142.2,28.51,2.16,-2.78
2009-06-09 21:00,8.51,98.3,28.53,8.42,-1.23
2009-06-09 22:00,20.53,118.3,28.48,18.07,-9.74
2009-06-09 23:00,16.42,124.7,28.59,13.51,-9.34
2009-06-10 00:00,12.61,169.7,28.48,2.26,-12.41
2009-06-10 01:00,18.18,232.9,28.45,-14.51,-10.96
2009-06-10 02:00,25.81,281.1,28.48,-25.33,4.98
2009-06-10 03:00,17.60,290.6,28.48,-16.47,6.19
2009-06-10 04:00,10.85,288.9,28.45,-10.27,3.51
2009-06-10 05:00,11.15,243.1,28.42,-9.94,-5.04
2009-06-10 06:00,13.79,228.4,28.51,-10.30,-9.16
2009-06-10 07:00,18.48,235.8,28.51,-15.28,-10.40
2009-06-10 08:00,15.84,242.1,28.56,-14.00,-7.41
2009-06-10 09:00,12.32,233.3,28.51,-9.88,-7.36
2009-06-10 10:00,15.25,236.1,28.42,-12.66,-8.50
2009-06-10 11:00,11.73,262.8,28.45,-11.64,-1.46
2009-06-10 12:00,9.97,270.9,28.48,-9.97,0.16
2009-06-10 13:00,15.25,276.2,28.45,-15.16,1.65
2009-06-10 14:00,13.20,296.6,28.45,-11.80,5.91
2009-06-10 15:00,17.01,293.4,28.45,-15.61,6.76
2009-06-10 16:00,8.21,256.5,28.51,-7.99,-1.92
2009-06-10 17:00,13.79,269.9,28.56,-13.79,-0.03
2009-06-10 18:00,13.20,259.0,28.65,-12.95,-2.53
2009-06-10 19:00,15.84,268.5,28.70,-15.83,-0.43
2009-06-10 20:00,12.61,277.2,28.67,-12.51,1.59
2009-06-10 21:00,8.51,285.0,28.67,-8.22,2.20
2009-06-10 22:00,3.81,201.7,28.65,-1.41,-3.54
2009-06-10 23:00,10.56,186.5,28.62,-1.20,-10.49
2009-06-11 00:00,5.28,197.1,28.59,-1.55,-5.05
2009-06-11 01:00,6.75,261.8,28.59,-6.68,-0.96
2009-06-11 02:00,10.27,297.6,28.59,-9.09,4.76
2009-06-11 03:00,7.04,323.3,28.59,-4.21,5.64
2009-06-11 04:00,6.45,291.3,28.56,-6.01,2.35
2009-06-11 05:00,4.99,255.1,28.56,-4.82,-1.28
2009-06-11 06:00,6.16,195.7,28.56,-1.66,-5.93
2009-06-11 07:00,4.40,147.2,28.53,2.39,-3.70
2009-06-11 08:00,3.81,177.7,28.51,0.15,-3.81
2009-06-11 09:00,1.76,141.5,28.48,1.09,-1.38
2009-06-11 10:00,5.57,166.1,28.48,1.33,-5.41
2009-06-11 11:00,2.93,97.9,28.45,2.90,-0.40
2009-06-11 12:00,5.57,311.0,28.42,-4.21,3.66
2009-06-11 13:00,10.56,308.9,28.48,-8.22,6.63
2009-06-11 14:00,12.61,323.3,28.48,-7.54,10.11
2009-06-11 15:00,16.72,312.4,28.53,-12.34,11.27
2009-06-11 16:00,16.42,303.3,28.62,-13.73,9.01
2009-06-11 17:00,7.04,321.5,28.67,-4.38,5.51
2009-06-11 18:00,1.17,289.2,28.70,-1.11,0.39
2009-06-11 19:00,3.23,49.4,28.76,2.45,2.10
2009-06-11 20:00,2.93,40.3,28.76,1.90,2.24
2009-06-11 21:00,3.52,45.5,28.73,2.51,2.46
2009-06-11 22:00,7.04,127.1,28.70,5.61,-4.25
2009-06-11 23:00,7.04,142.2,28.62,4.31,-5.56
2009-06-12 00:00,6.45,108.5,28.59,6.12,-2.05
2009-06-12 01:00,1.47,248.8,28.53,-1.37,-0.53
2009-06-12 02:00,2.05,264.2,28.53,-2.04,-0.21
2009-06-12 03:00,9.97,326.1,28.59,-5.56,8.28
2009-06-12 04:00,8.21,291.7,28.56,-7.63,3.03
2009-06-12 05:00,7.92,297.3,28.56,-7.04,3.63
2009-06-12 06:00,4.69,258.3,28.53,-4.59,-0.95
2009-06-12 07:00,5.87,243.8,28.48,-5.27,-2.59
2009-06-12 08:00,11.44,293.8,28.45,-10.47,4.61
2009-06-12 09:00,12.03,262.8,28.48,-11.93,-1.50
2009-06-12 10:00,16.42,277.2,28.45,-16.29,2.07
2009-06-12 11:00,12.03,273.7,28.48,-12.00,0.78
2009-06-12 12:00,7.92,237.2,28.48,-6.65,-4.29
2009-06-12 13:00,6.75,279.7,28.51,-6.65,1.14
2009-06-12 14:00,9.97,281.1,28.53,-9.79,1.92
2009-06-12 15:00,11.15,305.7,28.48,-9.05,6.51
2009-06-12 16:00,16.13,289.9,28.59,-15.17,5.49
2009-06-12 17:00,12.91,317.7,28.65,-8.69,9.54
2009-06-12 18:00,5.28,315.6,28.65,-3.70,3.77
2009-06-12 19:00,6.16,241.7,28.70,-5.42,-2.92
2009-06-12 20:00,5.28,166.5,28.70,1.23,-5.13
2009-06-12 21:00,4.69,185.5,28.70,-0.45,-4.67
2009-06-12 22:00,2.93,157.4,28.67,1.13,-2.71
2009-06-12 23:00,1.47,181.6,28.67,-0.04,-1.47
2009-06-13 00:00,4.11,152.8,28.65,1.88,-3.65
2009-06-13 01:00,0.00,12.1,28.62,0.00,0.00
2009-06-13 02:00,2.05,123.6,28.59,1.71,-1.14
2009-06-13 03:00,1.47,254.7,28.56,-1.41,-0.39
2009-06-13 04:00,4.40,242.1,28.56,-3.89,-2.06
2009-06-13 05:00,11.73,266.7,28.62,-11.71,-0.68
2009-06-13 06:00,11.73,274.8,28.62,-11.69,0.98
2009-06-13 07:00,8.51,275.1,28.62,-8.47,0.76
2009-06-13 08:00,7.33,240.3,28.59,-6.37,-3.63
2009-06-13 09:00,8.80,242.1,28.59,-7.78,-4.12
2009-06-13 10:00,2.93,277.2,28.56,-2.91,0.37
2009-06-13 11:00,1.76,311.0,28.56,-1.33,1.15
2009-06-13 12:00,3.52,259.7,28.56,-3.46,-0.63
2009-06-13 13:00,4.69,241.7,28.59,-4.13,-2.22
2009-06-13 14:00,6.16,195.0,28.62,-1.59,-5.95
2009-06-13 15:00,10.56,278.7,28.70,-10.44,1.59
2009-06-13 16:00,20.82,268.1,28.87,-20.81,-0.69
2009-06-13 17:00,14.37,283.9,28.93,-13.95,3.46
2009-06-13 18:00,14.08,272.7,28.90,-14.06,0.66
2009-06-13 19:00,10.56,249.8,28.95,-9.91,-3.64
2009-06-13 20:00,5.87,230.5,28.90,-4.53,-3.73
2009-06-13 21:00,7.04,256.9,28.93,-6.85,-1.60
2009-06-13 22:00,12.03,224.9,28.90,-8.48,-8.52
2009-06-13 23:00,13.20,236.8,28.81,-11.05,-7.22
2009-06-14 00:00,13.20,217.1,28.81,-7.97,-10.52
2009-06-14 01:00,13.49,232.9,28.73,-10.77,-8.13
2009-06-14 02:00,17.60,274.4,28.67,-17.55,1.36
2009-06-14 03:00,15.84,283.6,28.65,-15.40,3.72
2009-06-14 04:00,18.18,291.3,28.65,-16.94,6.61
2009-06-14 05:00,14.37,278.3,28.59,-14.22,2.08
2009-06-14 06:00,9.39,257.9,28.59,-9.18,-1.97
2009-06-14 07:00,6.16,208.7,28.56,-2.96,-5.40
2009-06-14 08:00,4.11,208.7,28.56,-1.97,-3.60
2009-06-14 09:00,2.93,151.4,28.56,1.41,-2.57
2009-06-14 10:00,5.57,140.1,28.56,3.57,-4.28
2009-06-14 11:00,12.91,129.9,28.65,9.90,-8.28
2009-06-14 12:00,17.30,122.9,28.65,14.53,-9.40
2009-06-14 13:00,16.72,133.4,28.67,12.14,-11.50
2009-06-14 14:00,12.61,126.4,28.67,10.15,-7.49
2009-06-14 15:00,5.28,203.4,28.67,-2.10,-4.84
2009-06-14 16:00,8.21,306.1,28.76,-6.64,4.84
2009-06-14 17:00,13.49,299.8,28.81,-11.71,6.70
2009-06-14 18:00,11.15,294.8,28.84,-10.12,4.68
2009-06-14 19:00,8.80,274.8,28.81,-8.77,0.73
2009-06-14 20:00,9.09,286.7,28.79,-8.71,2.62
2009-06-14 21:00,1.47,197.1,28.73,-0.43,-1.40
2009-06-14 22:00,6.45,145.0,28.70,3.70,-5.29
2009-06-14 23:00,7.92,141.2,28.70,4.96,-6.17
2009-06-15 00:00,7.92,152.4,28.70,3.67,-7.02
2009-06-15 01:00,5.28,213.3,28.70,-2.90,-4.41
2009-06-15 02:00,5.57,262.1,28.67,-5.52,-0.76
2009-06-15 03:00,10.56,261.1,28.67,-10.43,-1.64
2009-06-15 04:00,15.54,263.9,28.62,-15.46,-1.66
2009-06-15 05:00,12.91,266.7,28.62,-12.88,-0.74
2009-06-15 06:00,11.73,264.6,28.62,-11.68,-1.11
2009-06-15 07:00,10.85,278.7,28.59,-10.73,1.63
2009-06-15 08:00,7.33,255.4,28.59,-7.10,-1.84
2009-06-15 09:00,3.52,243.8,28.59,-3.16,-1.55
2009-06-15 10:00,2.93,221.3,28.56,-1.94,-2.20
2009-06-15 11:00,1.17,121.5,28.59,1.00,-0.61
2009-06-15 12:00,2.35,197.1,28.59,-0.69,-2.24
2009-06-15 13:00,3.81,186.2,28.65,-0.41,-3.79
2009-06-15 14:00,7.04,237.9,28.67,-5.96,-3.74
2009-06-15 15:00,7.63,270.6,28.70,-7.63,0.08
2009-06-15 16:00,9.68,261.8,28.76,-9.58,-1.38
2009-06-15 17:00,11.44,263.5,28.79,-11.37,-1.29
2009-06-15 18:00,9.09,285.0,28.73,-8.78,2.35
2009-06-15 19:00,6.16,270.2,28.70,-6.16,0.02
2009-06-15 20:00,7.04,248.8,28.67,-6.56,-2.55
2009-06-15 21:00,5.57,278.0,28.65,-5.52,0.77
2009-06-15 22:00,0.29,316.6,28.65,-0.20,0.21
2009-06-15 23:00,4.69,152.8,28.67,2.15,-4.17
2009-06-16 00:00,8.21,138.0,28.67,5.49,-6.10
2009-06-16 01:00,7.04,160.2,28.67,2.39,-6.62
2009-06-16 02:00,7.04,206.2,28.67,-3.11,-6.31
2009-06-16 03:00,5.28,241.7,28.70,-4.65,-2.50
2009-06-16 04:00,8.80,264.9,28.70,-8.76,-0.78
2009-06-16 05:00,9.39,269.5,28.67,-9.39,-0.08
2009-06-16 06:00,14.66,255.4,28.62,-14.19,-3.68
2009-06-16 07:00,19.65,265.6,28.56,-19.59,-1.49
2009-06-16 08:00,9.68,300.5,28.53,-8.34,4.91
2009-06-16 09:00,12.03,274.8,28.45,-11.98,1.00
2009-06-16 10:00,7.04,320.5,28.45,-4.48,5.43
2009-06-16 11:00,4.40,27.3,28.45,2.02,3.91
2009-06-16 12:00,5.87,105.7,28.45,5.65,-1.58
2009-06-16 13:00,10.27,117.6,28.51,9.10,-4.76
2009-06-16 14:00,8.21,109.5,28.62,7.74,-2.75
2009-06-16 15:00,2.93,215.0,28.67,-1.68,-2.40
2009-06-16 16:00,7.92,246.3,28.70,-7.25,-3.18
2009-06-16 17:00,15.25,264.9,28.76,-15.19,-1.34
2009-06-16 18:00,23.17,288.1,28.79,-22.02,7.22
2009-06-16 19:00,22.58,292.0,28.84,-20.94,8.47
2009-06-16 20:00,22.00,295.9,28.76,-19.79,9.60
2009-06-16 21:00,12.03,306.4,28.76,-9.68,7.14
2009-06-16 22:00,4.40,312.4,28.70,-3.25,2.97
2009-06-16 23:00,5.28,81.1,28.65,5.22,0.82
2009-06-17 00:00,7.92,84.2,28.62,7.88,0.80
2009-06-17 01:00,14.96,103.2,28.65,14.56,-3.42
2009-06-17 02:00,14.96,139.4,28.65,9.73,-11.36
2009-06-17 03:00,10.27,173.2,28.65,1.22,-10.19
2009-06-17 04:00,11.15,258.6,28.65,-10.93,-2.20
2009-06-17 05:00,18.77,271.3,28.59,-18.77,0.42
2009-06-17 06:00,19.36,286.7,28.59,-18.54,5.58
2009-06-17 07:00,13.49,269.9,28.56,-13.49,-0.03
2009-06-17 08:00,13.20,299.0,28.53,-11.54,6.41
2009-06-17 09:00,7.33,293.4,28.53,-6.73,2.91
2009-06-17 10:00,2.93,260.0,28.51,-2.89,-0.51
2009-06-17 11:00,4.99,68.7,28.45,4.65,1.81
2009-06-17 12:00,3.81,209.0,28.42,-1.85,-3.33
2009-06-17 13:00,4.99,151.4,28.48,2.39,-4.38
2009-06-17 14:00,5.28,162.3,28.48,1.61,-5.03
2009-06-17 15:00,4.11,158.1,28.53,1.53,-3.81
2009-06-17 16:00,6.75,233.3,28.56,-5.41,-4.03
2009-06-17 17:00,12.61,270.2,28.56,-12.61,0.05
2009-06-17 18:00,16.42,278.3,28.56,-16.25,2.37
2009-06-17 19:00,14.96,276.2,28.56,-14.87,1.61
2009-06-17 20:00,13.49,278.7,28.59,-13.34,2.03
2009-06-17 21:00,11.15,283.2,28.59,-10.85,2.55
2009-06-17 22:00,9.68,273.4,28.56,-9.66,0.57
2009-06-17 23:00,8.51,281.1,28.53,-8.35,1.64
2009-06-18 00:00,7.04,306.4,28.53,-5.66,4.18
2009-06-18 01:00,6.45,285.7,28.51,-6.21,1.74
2009-06-18 02:00,7.63,254.7,28.51,-7.36,-2.01
2009-06-18 03:00,8.21,276.9,28.51,-8.15,0.99
2009-06-18 04:00,13.49,262.8,28.51,-13.39,-1.68
2009-06-18 05:00,20.82,272.7,28.48,-20.80,0.97
2009-06-18 06:00,18.48,273.0,28.51,-18.45,0.98
2009-06-18 07:00,16.42,272.7,28.48,-16.41,0.77
2009-06-18 08:00,14.37,285.0,28.39,-13.88,3.72
2009-06-18 09:00,14.37,269.9,28.39,-14.37,-0.03
2009-06-18 10:00,12.32,253.0,28.37,-11.78,-3.60
2009-06-18 11:00,6.75,259.7,28.37,-6.64,-1.21
2009-06-18 12:00,2.93,195.0,28.37,-0.76,-2.83
2009-06-18 13:00,3.52,116.9,28.37,3.14,-1.59
2009-06-18 14:00,9.39,107.1,28.42,8.97,-2.76
2009-06-18 15:00,9.39,141.2,28.48,5.88,-7.31
2009-06-18 16:00,9.39,169.0,28.51,1.80,-9.21
2009-06-18 17:00,6.75,212.6,28.53,-3.63,-5.69
2009-06-18 18:00,7.04,213.3,28.59,-3.86,-5.89
2009-06-18 19:00,8.51,240.7,28.59,-7.42,-4.16
2009-06-18 20:00,16.72,273.0,28.59,-16.69,0.88
2009-06-18 21:00,17.30,270.9,28.59,-17.30,0.28
2009-06-18 22:00,28.16,285.0,28.59,-27.20,7.28
2009-06-18 23:00,22.00,277.2,28.51,-21.82,2.78
2009-06-19 00:00,22.00,278.0,28.48,-21.79,3.04
2009-06-19 01:00,22.58,274.8,28.45,-22.51,1.88
2009-06-19 02:00,19.94,273.0,28.42,-19.92,1.05
2009-06-19 03:00,19.36,275.1,28.42,-19.28,1.73
2009-06-19 04:00,13.49,287.1,28.42,-12.90,3.97
2009-06-19 05:00,13.49,281.1,28.42,-13.24,2.60
2009-06-19 06:00,17.01,271.6,28.39,-17.00,0.48
2009-06-19 07:00,17.60,267.8,28.39,-17.58,-0.69
2009-06-19 08:00,12.91,268.1,28.39,-12.90,-0.43
2009-06-19 09:00,14.08,266.3,28.39,-14.05,-0.90
2009-06-19 10:00,17.89,278.3,28.39,-17.70,2.58
2009-06-19 11:00,15.25,262.8,28.39,-15.13,-1.90
2009-06-19 12:00,4.99,240.3,28.39,-4.33,-2.47
2009-06-19 13:00,5.28,249.1,28.42,-4.93,-1.88
2009-06-19 14:00,5.57,203.4,28.48,-2.21,-5.11
2009-06-19 15:00,4.40,199.9,28.48,-1.50,-4.14
2009-06-19 16:00,5.57,142.9,28.48,3.36,-4.45
2009-06-19 17:00,7.92,234.0,28.51,-6.41,-4.65
2009-06-19 18:00,7.63,229.1,28.56,-5.76,-5.00
2009-06-19 19:00,7.04,262.8,28.62,-6.98,-0.88
2009-06-19 20:00,16.13,263.9,28.62,-16.04,-1.72
2009-06-19 21:00,17.89,276.5,28.62,-17.77,2.04
2009-06-19 22:00,24.64,283.2,28.59,-23.98,5.64
2009-06-19 23:00,22.00,283.6,28.53,-21.38,5.16
2009-06-20 00:00,22.58,271.3,28.53,-22.58,0.50
2009-06-20 01:00,18.18,277.2,28.48,-18.04,2.29
2009-06-20 02:00,19.65,289.2,28.48,-18.56,6.46
2009-06-20 03:00,15.54,282.2,28.45,-15.20,3.28
2009-06-20 04:00,18.18,278.0,28.45,-18.01,2.52
2009-06-20 05:00,17.30,269.2,28.42,-17.30,-0.25
2009-06-20 06:00,16.42,264.2,28.42,-16.34,-1.65
2009-06-20 07:00,14.66,263.2,28.39,-14.56,-1.74
2009-06-20 08:00,8.80,273.0,28.37,-8.79,0.46
2009-06-20 09:00,6.45,270.6,28.37,-6.45,0.06
2009-06-20 10:00,4.40,225.2,28.37,-3.12,-3.10
2009-06-20 11:00,8.80,223.8,28.37,-6.09,-6.35
2009-06-20 12:00,13.20,244.9,28.37,-11.95,-5.60
2009-06-20 13:00,6.16,268.5,28.37,-6.16,-0.17
2009-06-20 14:00,4.11,261.1,28.39,-4.06,-0.64
2009-06-20 15:00,7.63,234.0,28.48,-6.17,-4.48
2009-06-20 16:00,6.75,239.6,28.56,-5.82,-3.41
2009-06-20 17:00,8.21,270.6,28.62,-8.21,0.08
2009-06-20 18:00,1.47,290.3,28.65,-1.38,0.51
2009-06-20 19:00,3.52,215.4,28.67,-2.04,-2.87
2009-06-20 20:00,3.52,187.2,28.70,-0.44,-3.49
2009-06-20 21:00,2.35,211.9,28.70,-1.24,-1.99
2009-06-20 22:00,4.69,202.0,28.70,-1.76,-4.35
2009-06-20 23:00,9.97,227.0,28.70,-7.29,-6.80
2009-06-21 00:00,14.37,254.0,28.67,-13.82,-3.95
2009-06-21 01:00,20.82,270.6,28.59,-20.82,0.21
2009-06-21 02:00,20.53,286.0,28.53,-19.73,5.67
2009-06-21 03:00,25.22,279.0,28.56,-24.91,3.95
2009-06-21 04:00,20.53,288.9,28.56,-19.43,6.63
2009-06-21 05:00,23.17,292.4,28.51,-21.43,8.82
2009-06-21 06:00,19.06,296.2,28.48,-17.10,8.43
2009-06-21 07:00,13.79,293.1,28.45,-12.68,5.40
2009-06-21 08:00,2.35,269.9,28.42,-2.35,-0.01
2009-06-21 09:00,4.11,208.7,28.42,-1.97,-3.60
2009-06-21 10:00,4.69,106.4,28.39,4.50,-1.32
2009-06-21 11:00,3.52,161.2,28.42,1.13,-3.33
2009-06-21 12:00,12.91,200.2,28.51,-4.47,-12.11
2009-06-21 13:00,10.85,184.4,28.62,-0.84,-10.82
2009-06-21 14:00,6.75,218.5,28.62,-4.20,-5.28
2009-06-21 15:00,4.69,273.0,28.65,-4.69,0.25
2009-06-21 16:00,11.73,264.2,28.67,-11.67,-1.18
2009-06-21 17:00,16.42,282.9,28.70,-16.01,3.66
2009-06-21 18:00,19.36,288.1,28.73,-18.39,6.03
2009-06-21 19:00,15.84,288.1,28.76,-15.05,4.93
2009-06-21 20:00,10.85,294.8,28.73,-9.85,4.56
2009-06-21 21:00,3.23,234.0,28.70,-2.61,-1.90
2009-06-21 22:00,4.99,183.7,28.67,-0.32,-4.98
2009-06-21 23:00,1.17,206.2,28.65,-0.52,-1.05
2009-06-22 00:00,4.69,191.8,28.62,-0.96,-4.59
2009-06-22 01:00,6.75,246.7,28.65,-6.19,-2.67
2009-06-22 02:00,11.73,248.4,28.62,-10.91,-4.32
2009-06-22 03:00,21.70,262.1,28.65,-21.50,-2.97
2009-06-22 04:00,19.65,274.1,28.62,-19.60,1.40
2009-06-22 05:00,21.12,278.7,28.62,-20.88,3.18
2009-06-22 06:00,14.37,287.4,28.62,-13.71,4.31
2009-06-22 07:00,14.08,282.9,28.59,-13.72,3.14
2009-06-22 08:00,5.87,264.9,28.56,-5.84,-0.52
2009-06-22 09:00,2.35,354.2,28.56,-0.24,2.33
2009-06-22 10:00,5.57,110.2,28.53,5.23,-1.93
2009-06-22 11:00,4.69,111.3,28.53,4.37,-1.70
2009-06-22 12:00,7.63,121.5,28.56,6.50,-3.98
2009-06-22 13:00,4.11,129.9,28.59,3.15,-2.64
2009-06-22 14:00,7.63,172.5,28.70,1.00,-7.56
2009-06-22 15:00,2.93,161.2,28.73,0.94,-2.78
2009-06-22 16:00,1.76,172.1,28.81,0.24,-1.74
2009-06-22 17:00,3.52,39.2,28.87,2.23,2.73
2009-06-22 18:00,3.52,63.8,28.98,3.16,1.55
2009-06-22 19:00,7.04,28.0,29.12,3.30,6.22
2009-06-22 20:00,6.75,60.3,28.95,5.86,3.34
2009-06-22 21:00,10.85,59.6,28.84,9.36,5.49
2009-06-22 22:00,13.20,55.0,28.93,10.82,7.56
2009-06-22 23:00,12.32,75.8,28.81,11.94,3.03
2009-06-23 00:00,12.03,109.9,28.73,11.31,-4.09
2009-06-23 01:00,11.73,125.7,28.79,9.53,-6.85
2009-06-23 02:00,17.01,121.1,28.81,14.56,-8.80
2009-06-23 03:00,18.18,123.2,28.90,15.21,-9.97
2009-06-23 04:00,14.96,153.8,28.87,6.60,-13.43
2009-06-23 05:00,12.32,228.7,28.90,-9.26,-8.13
2009-06-23 06:00,20.82,261.4,28.84,-20.59,-3.10
2009-06-23 07:00,24.93,282.9,28.81,-24.30,5.55
2009-06-23 08:00,25.22,288.1,28.84,-23.97,7.86
2009-06-23 09:00,20.24,288.9,28.84,-19.15,6.54
2009-06-23 10:00,19.65,290.6,28.79,-18.39,6.92
2009-06-23 11:00,15.54,286.0,28.79,-14.94,4.29
2009-06-23 12:00,12.61,284.6,28.76,-12.20,3.19
2009-06-23 13:00,7.92,296.9,28.79,-7.06,3.59
2009-06-23 14:00,6.16,270.2,28.81,-6.16,0.02
2009-06-23 15:00,9.09,247.4,28.87,-8.39,-3.50
2009-06-23 16:00,6.75,249.8,28.95,-6.33,-2.33
2009-06-23 17:00,7.92,296.6,29.07,-7.08,3.54
2009-06-23 18:00,9.68,311.4,29.15,-7.27,6.39
2009-06-23 19:00,10.56,323.3,29.15,-6.31,8.47
2009-06-23 20:00,12.61,319.4,29.07,-8.20,9.58
2009-06-23 21:00,10.27,325.4,29.01,-5.83,8.45
2009-06-23 22:00,8.21,339.5,29.01,-2.88,7.69
2009-06-23 23:00,8.51,359.1,28.95,-0.13,8.50
2009-06-24 00:00,7.63,48.0,28.90,5.67,5.10
2009-06-24 01:00,3.23,131.3,28.90,2.42,-2.13
2009-06-24 02:00,1.47,108.1,28.84,1.39,-0.46
2009-06-24 03:00,2.93,112.7,28.84,2.71,-1.13
2009-06-24 04:00,9.68,131.3,28.87,7.27,-6.39
2009-06-24 05:00,11.44,145.8,28.90,6.44,-9.46
2009-06-24 06:00,12.91,150.7,28.95,6.32,-11.25
2009-06-24 07:00,10.85,126.4,28.81,8.73,-6.44
2009-06-24 08:00,1.47,259.3,28.73,-1.44,-0.27
2009-06-24 09:00,13.79,299.8,28.84,-11.97,6.84
2009-06-24 10:00,16.42,274.1,28.93,-16.38,1.17
2009-06-24 11:00,17.30,272.7,28.93,-17.29,0.81
2009-06-24 12:00,18.48,284.3,28.90,-17.91,4.56
2009-06-24 13:00,18.48,283.6,28.90,-17.96,4.34
2009-06-24 14:00,14.37,283.2,28.90,-13.99,3.29
2009-06-24 15:00,15.84,273.4,28.93,-15.81,0.93
2009-06-24 16:00,17.60,270.9,28.98,-17.60,0.28
2009-06-24 17:00,22.29,273.0,29.01,-22.26,1.18
2009-06-24 18:00,11.44,275.1,29.01,-11.39,1.02
2009-06-24 19:00,14.08,271.6,29.07,-14.07,0.40
2009-06-24 20:00,17.01,262.1,29.07,-16.85,-2.33
2009-06-24 21:00,19.94,274.8,29.07,-19.87,1.66
2009-06-24 22:00,16.72,271.6,29.04,-16.71,0.47
2009-06-24 23:00,20.53,287.1,28.98,-19.62,6.03
2009-06-25 00:00,22.88,279.4,28.98,-22.57,3.72
2009-06-25 01:00,28.45,281.5,28.95,-27.88,5.66
2009-06-25 02:00,29.92,285.0,28.93,-28.90,7.73
2009-06-25 03:00,21.70,276.9,28.93,-21.55,2.61
2009-06-25 04:00,23.17,281.5,28.90,-22.71,4.61
2009-06-25 05:00,18.77,283.9,28.87,-18.22,4.52
2009-06-25 06:00,10.85,278.7,28.87,-10.73,1.63
2009-06-25 07:00,7.92,234.0,28.84,-6.41,-4.65
2009-06-25 08:00,6.75,285.7,28.84,-6.49,1.82
2009-06-25 09:00,4.40,273.7,28.84,-4.39,0.29
2009-06-25 10:00,12.32,274.4,28.81,-12.28,0.95
2009-06-25 11:00,20.53,284.3,28.81,-19.90,5.06
2009-06-25 12:00,19.94,292.0,28.81,-18.49,7.48
2009-06-25 13:00,19.94,276.2,28.84,-19.83,2.15
2009-06-25 14:00,18.48,289.9,28.81,-17.37,6.29
2009-06-25 15:00,27.57,275.1,28.84,-27.46,2.47
2009-06-25 16:00,25.22,279.7,28.87,-24.86,4.25
2009-06-25 17:00,16.72,273.7,28.90,-16.68,1.09
2009-06-25 18:00,13.49,288.1,28.95,-12.82,4.20
2009-06-25 19:00,7.33,208.0,28.93,-3.44,-6.48
2009-06-25 20:00,2.05,216.4,28.98,-1.22,-1.65
2009-06-25 21:00,9.09,273.4,28.98,-9.08,0.54
2009-06-25 22:00,7.33,280.1,28.95,-7.22,1.28
2009-06-25 23:00,13.20,279.0,28.95,-13.04,2.07
2009-06-26 00:00,20.24,272.0,28.98,-20.23,0.70
2009-06-26 01:00,23.17,275.5,28.95,-23.06,2.22
2009-06-26 02:00,28.45,272.0,28.95,-28.43,0.98
2009-06-26 03:00,26.69,274.4,28.95,-26.61,2.06
2009-06-26 04:00,31.68,270.2,28.90,-31.68,0.12
2009-06-26 05:00,33.14,273.0,28.90,-33.10,1.75
2009-06-26 06:00,19.94,288.1,28.87,-18.95,6.21
2009-06-26 07:00,21.12,255.4,28.84,-20.44,-5.31
2009-06-26 08:00,20.53,267.1,28.84,-20.50,-1.06
2009-06-26 09:00,11.44,279.0,28.84,-11.30,1.79
2009-06-26 10:00,16.13,268.1,28.84,-16.12,-0.53
2009-06-26 11:00,21.70,261.4,28.84,-21.46,-3.24
2009-06-26 12:00,26.98,273.7,28.84,-26.93,1.76
2009-06-26 13:00,26.69,277.6,28.84,-26.46,3.53
2009-06-26 14:00,26.10,280.4,28.87,-25.67,4.72
2009-06-26 15:00,27.28,285.0,28.90,-26.35,7.05
2009-06-26 16:00,18.77,277.2,28.93,-18.62,2.37
2009-06-26 17:00,28.16,272.3,28.98,-28.13,1.14
2009-06-26 18:00,20.24,268.8,28.95,-20.23,-0.42
2009-06-26 19:00,14.96,269.9,29.04,-14.96,-0.04
2009-06-26 20:00,8.80,263.9,29.07,-8.75,-0.94
2009-06-26 21:00,5.57,250.5,29.07,-5.25,-1.86
2009-06-26 22:00,8.51,260.0,29.07,-8.38,-1.47
2009-06-26 23:00,12.32,241.7,29.07,-10.85,-5.83
2009-06-27 00:00,21.41,257.6,29.07,-20.91,-4.61
2009-06-27 01:00,14.96,267.4,29.07,-14.94,-0.68
2009-06-27 02:00,24.05,272.3,29.07,-24.03,0.98
2009-06-27 03:00,23.76,269.5,29.04,-23.76,-0.20
2009-06-27 04:00,27.28,267.8,29.07,-27.26,-1.07
2009-06-27 05:00,27.28,264.9,29.04,-27.17,-2.40
2009-06-27 06:00,20.24,284.3,29.01,-19.61,4.99
2009-06-27 07:00,12.03,280.4,29.01,-11.83,2.17
2009-06-27 08:00,9.09,250.2,29.01,-8.55,-3.08
2009-06-27 09:00,7.33,265.3,28.98,-7.31,-0.60
2009-06-27 10:00,8.51,298.0,28.95,-7.51,3.99
2009-06-27 11:00,8.80,272.0,28.95,-8.79,0.30
2009-06-27 12:00,19.65,261.1,28.98,-19.41,-3.05
2009-06-27 13:00,22.88,266.7,29.04,-22.84,-1.32
2009-06-27 14:00,26.98,273.4,29.04,-26.94,1.59
2009-06-27 15:00,31.68,274.1,29.04,-31.60,2.26
2009-06-27 16:00,39.30,270.9,29.07,-39.30,0.63
2009-06-27 17:00,40.48,270.2,29.07,-40.48,0.15
2009-06-27 18:00,40.77,262.8,29.12,-40.45,-5.09
2009-06-27 19:00,24.05,235.8,29.21,-19.88,-13.53
2009-06-27 20:00,17.01,221.0,29.24,-11.16,-12.84
2009-06-27 21:00,12.32,192.9,29.24,-2.74,-12.01
2009-06-27 22:00,5.87,135.2,29.24,4.13,-4.16
2009-06-27 23:00,3.81,197.8,29.18,-1.16,-3.63
2009-06-28 00:00,9.39,253.0,29.12,-8.97,-2.75
2009-06-28 01:00,15.54,265.3,29.12,-15.49,-1.28
2009-06-28 02:00,16.13,261.1,29.07,-15.94,-2.50
2009-06-28 03:00,29.33,264.6,29.01,-29.20,-2.76
2009-06-28 04:00,34.90,265.6,29.01,-34.80,-2.65
2009-06-28 05:00,35.49,260.7,28.98,-35.03,-5.72
2009-06-28 06:00,18.77,296.6,28.87,-16.79,8.40
2009-06-28 07:00,9.97,272.7,28.87,-9.96,0.47
2009-06-28 08:00,8.51,196.7,28.90,-2.45,-8.15
2009-06-28 09:00,20.82,133.8,29.01,15.03,-14.41
2009-06-28 10:00,23.17,115.2,28.95,20.97,-9.85
2009-06-28 11:00,14.66,102.9,28.95,14.30,-3.26
2009-06-28 12:00,9.97,137.0,28.95,6.81,-7.29
2009-06-28 13:00,1.76,78.9,28.95,1.73,0.34
2009-06-28 14:00,8.51,272.7,29.04,-8.50,0.40
2009-06-28 15:00,19.94,276.5,29.12,-19.81,2.27
2009-06-28 16:00,28.45,270.9,29.18,-28.45,0.46
2009-06-28 17:00,33.14,275.8,29.35,-32.97,3.37
2009-06-28 18:00,36.37,277.2,29.35,-36.08,4.59
2009-06-28 19:00,18.48,285.3,29.29,-17.82,4.89
2009-06-28 20:00,6.45,258.3,29.18,-6.32,-1.31
2009-06-28 21:00,2.93,126.1,29.07,2.37,-1.73
2009-06-28 22:00,5.57,107.1,29.09,5.33,-1.64
2009-06-28 23:00,7.04,114.5,29.18,6.41,-2.91
2009-06-29 00:00,6.45,51.2,29.12,5.03,4.05
2009-06-29 01:00,8.51,284.3,29.09,-8.24,2.10
2009-06-29 02:00,10.56,295.2,29.07,-9.56,4.49
2009-06-29 03:00,11.73,277.6,29.07,-11.63,1.55
2009-06-29 04:00,19.36,279.0,29.04,-19.12,3.03
2009-06-29 05:00,19.94,299.8,29.01,-17.32,9.90
2009-06-29 06:00,20.24,289.9,29.04,-19.03,6.89
2009-06-29 07:00,13.49,296.6,29.01,-12.07,6.04
2009-06-29 08:00,2.05,109.2,29.01,1.94,-0.67
2009-06-29 09:00,11.44,145.8,29.01,6.44,-9.46
2009-06-29 10:00,17.60,117.3,29.04,15.64,-8.06
2009-06-29 11:00,19.65,112.0,29.01,18.22,-7.36
2009-06-29 12:00,15.54,114.8,29.01,14.11,-6.52
2009-06-29 13:00,3.52,127.8,29.01,2.78,-2.16
2009-06-29 14:00,3.52,331.4,29.07,-1.69,3.09
2009-06-29 15:00,8.80,256.2,29.21,-8.54,-2.11
2009-06-29 16:00,17.30,267.4,29.29,-17.29,-0.78
2009-06-29 17:00,15.84,290.6,29.38,-14.82,5.57
2009-06-29 18:00,18.18,282.5,29.38,-17.75,3.94
2009-06-29 19:00,24.93,288.1,29.43,-23.69,7.77
2009-06-29 20:00,25.22,305.4,29.43,-20.57,14.60
2009-06-29 21:00,4.11,320.8,29.38,-2.59,3.18
2009-06-29 22:00,3.23,223.1,29.35,-2.20,-2.36
2009-06-29 23:00,3.52,61.4,29.24,3.09,1.69
2009-06-30 00:00,5.87,64.9,29.21,5.31,2.49
2009-06-30 01:00,6.75,188.6,29.26,-1.01,-6.67
2009-06-30 02:00,9.97,264.6,29.18,-9.93,-0.94
2009-06-30 03:00,13.49,294.8,29.15,-12.24,5.67
2009-06-30 04:00,27.57,279.4,29.18,-27.20,4.48
2009-06-30 05:00,25.52,287.8,29.15,-24.30,7.80
2009-06-30 06:00,25.52,281.5,29.12,-25.01,5.07
2009-06-30 07:00,25.52,268.5,29.07,-25.51,-0.69
2009-06-30 08:00,19.65,274.8,29.07,-19.58,1.64
2009-06-30 09:00,5.57,254.7,29.07,-5.38,-1.47
2009-06-30 10:00,9.68,176.7,29.07,0.56,-9.66
2009-06-30 11:00,19.06,129.9,29.15,14.62,-12.24
2009-06-30 12:00,19.94,101.8,29.04,19.52,-4.08
2009-06-30 13:00,14.96,57.5,28.98,12.62,8.04